Regional Weather Roundup
Issued by NWS

Home | Current Version | Previous Version | Graphics & Text | Print | Product List | Glossary On
Versions: 1 2 3 4 5 6 7 8 9 10 11 12 13 14 15 16 17 18 19 20 21 22 23 24 25 26 27 28 29 30 31 32 33 34 35 36 37 38 39 40 41 42 43 44 45 46 47 48 49 50
000
ASUS43 KOAX 070510
RWRNE

WEATHER ROUNDUP FOR NEBRASKA
NATIONAL WEATHER SERVICE OMAHA NE
1200 AM CDT TUE JUL 07 2015

NOTES: SATELLITE DATA IS BEING USED TO AUGMENT CLOUD COVER ABOVE
       12000 FEET.
       "FAIR" INDICATES FEW OR NO CLOUDS BELOW 12,000 FEET WITH NO
       SIGNIFICANT WEATHER AND/OR OBSTRUCTIONS TO VISIBILITY.

  * THESE STATIONS DO NOT REPORT WEATHER SUCH AS RAIN...SNOW OR FOG.

NEZ001>004-019>022-054>056-070600-
NEBRASKA PANHANDLE

CITY           SKY/WX    TMP DP  RH WIND       PRES   REMARKS
SCOTTSBLUFF    CLOUDY    64  57  78 SE5       30.25S HAZE
ALLIANCE       CLOUDY    61  56  83 E3        30.24F
CHADRON        CLOUDY    61  56  83 SE6       30.22S
KIMBALL          N/A    N/A N/A N/A MISG        N/A
SIDNEY         CLOUDY    63  54  72 E6        30.28F HAZE
$$

NEZ057>060-069>072-079>082-070600-
SOUTHWEST NEBRASKA

CITY           SKY/WX    TMP DP  RH WIND       PRES   REMARKS
NORTH PLATTE   PTCLDY    59  54  83 NE7       30.20S
IMPERIAL       CLOUDY    62  53  72 NE5       30.22S
LEXINGTON      PTCLDY    59  56  88 N3        30.18R
MCCOOK         CLEAR     60  55  83 N8        30.18R HAZE
OGALLALA       MOCLDY    65  54  67 E7        30.23S
$$

NEZ005>010-023>029-035>040-094-070600-
NORTH CENTRAL NEBRASKA

CITY           SKY/WX    TMP DP  RH WIND       PRES   REMARKS
VALENTINE      CLEAR     57  55  93 CALM      30.21R
AINSWORTH      CLEAR     61  55  80 CALM      30.20F
BROKEN BOW     PTCLDY    59  55  87 N5        30.18R FOG
O`NEILL        CLEAR     57  55  95 N3        30.17S
ORD            PTCLDY    58  53  84 CALM      30.15S
THEDFORD       CLEAR     60  55  83 CALM      30.22S
$$

NEZ041-046>049-061>064-073>077-083>087-070600-
SOUTH CENTRAL NEBRASKA

CITY           SKY/WX    TMP DP  RH WIND       PRES   REMARKS
GRAND ISLAND   CLEAR     61  56  83 N9        30.14S HAZE
AURORA         CLEAR     62  60  92 N6        30.12F FOG
HASTINGS       CLEAR     64  55  72 N8        30.14R HAZE
HEBRON         PTCLDY    66  58  75 N9        30.08S HAZE
HOLDREGE       CLEAR     58  54  85 N8        30.15F
KEARNEY *      CLEAR     59  52  77 NE7       30.16S
YORK           PTCLDY    64  61  88 N9        30.11F FOG
$$

NEZ011>018-030>034-042>045-070600-
NORTHEAST NEBRASKA

CITY           SKY/WX    TMP DP  RH WIND       PRES   REMARKS
NORFOLK        CLEAR     62  57  83 N7        30.14R HAZE
ALBION         CLEAR     60  54  81 N3        30.15R
BLAIR          CLEAR     65  56  72 N14       30.08R
FREMONT        CLEAR     65  57  74 N6        30.10S
TEKAMAH        CLEAR     63  57  81 N9        30.09R
WAYNE          CLEAR     57  56  96 CALM      30.14R FOG
$$

NEZ050>053-065>068-078-088>093-070600-
SOUTHEAST NEBRASKA

CITY           SKY/WX    TMP DP  RH WIND       PRES   REMARKS
LINCOLN        CLOUDY    65  60  84 N10       30.08R HAZE
OMAHA EPPLEY   CLOUDY    67  60  78 N12       30.06R HAZE
BEATRICE       CLEAR     67  60  78 N14       30.05F HAZE
FALLS CITY     CLOUDY    69  61  75 N8        30.00R HAZE
NEBRASKA CITY  MOCLDY    66  58  74 N9        30.04R HAZE
PLATTSMOUTH    PTCLDY    67  61  79 N9        30.05R HAZE
$$

NEZ044-045-051>053-067-070600-
OMAHA AREA

CITY           SKY/WX    TMP DP  RH WIND       PRES   REMARKS
OMAHA EPPLEY   CLOUDY    67  60  78 N12       30.06R HAZE
BLAIR          CLEAR     65  56  72 N14       30.08R
FREMONT        CLEAR     65  57  74 N6        30.10S
MILLARD        PTCLDY    68  58  70 N7        30.06S
OFFUTT AFB       N/A     68  60  74 N10G18    30.05R SMOKE
PLATTSMOUTH    PTCLDY    67  61  79 N9        30.05R HAZE
WAHOO          FAIR      65  58  78 N10       30.09R HAZE
$$



USA.gov is the U.S. government's official web portal to all federal, state and local government web resources and services.